Location: *
(44.3526°S, 44.9014°W)
Time: 20:15:27
(UTC+00:00)

ARIANE 5 R/B - Pass Details

Date: 13 May 2025
Orbit: 746 x 793 km, 98.8° (Epoch: 16 June)

Event Time Altitude Azimuth Distance (km) Brightness Sun altitude
Rises 20:19:13 0° 157° (SSE) 3,262 5.3 -6.6°
Reaches altitude 10° 20:21:46 10° 147° (SSE) 2,336 4.5 -7.0°
Maximum altitude 20:26:22 32° 84° (E) 1,318 3.3 -7.8°
Drops below altitude 10° 20:30:57 10° 21° (NNE) 2,335 5.0 -8.6°
Sets 20:33:29 0° 10° (N) 3,261 5.9 -9.0°
